星链-2661 (STARLINK-2661 )

导读 | 星芒AI

STARLINK-2661 是 SpaceX Starlink 卫星互联网项目中的一颗低轨通信卫星。它属于 Starlink 二代卫星系列,旨在提供更高速度、更低延迟的全球宽带服务。该卫星采用先进推进系统和激光通信技术,以提升网络效率和覆盖范围。STARLINK-2661 于近期由猎鹰九号火箭成功送入预定轨道,是 SpaceX 扩展其卫星群、实现全球互联网接入目标的重要组成部分。

基本信息
目录编号:
48469
目录名称:
STARLINK-2661
国际标识:
2021-040AT
轨道中心:
EARTH
卫星名称:
星链-2661
卫星全名:
星链-2661 (STARLINK-2661 )
卫星状态:
在轨 (已飞行1635 天)
发射日期:
2021-05-09 UTC
国别 :
美国 (US)
星等 :
--
轨道信息
数据来源 国际轨道数据
星历时间: 2025-10-30T08:25:27+0800
15小时前
查看轨道信息
半长轴: 6925.39km
偏心率: 0.0001903
轨道倾角: 53.056°
近地点辐角 93.751°
升交点赤经 58.226°
平近点角 266.370°
近地点: 545.937km
远地点: 548.573km
周期: 95.593分钟
每日圈数: 15.063867
详细信息
固有亮度:
5
最大亮度:
2.5
卫星平台:
Starlink V1.0
覆盖范围:
全球
运营商:
太空探索技术公司
运营商所在国:
美国
制造商(研发单位):
太空探索技术公司
制造商所在国:
美国
使用方式:
暂无
卫星简介
星链(Starlink)计划是由太空探索技术公司(SpaceX)提出的一个巨型低轨卫星互联网星座项目,计划在2019年至2024年间在太空搭建由约1.2万颗卫星组成的“星链”网络,其中1584颗将部署在地球上空550千米处的近地轨道,并从2020年开始工作。该卫星仍在工作。
2D轨道图
3D轨道图
轨道高度分析图
轨道倾角分析图
轨道综合分析图
查看轨道综合分析图